Tracking 33068 objects as of 25-Jan-2026
HD Live streaming from Space Station
objects crossing your sky now

WESTAR 5

Track WESTAR 5 now!
WESTAR 5 is classified as:


NORAD ID: 13269
Int'l Code: 1982-058A
Perigee: 36,006.6 km
Apogee: 36,176.4 km
Inclination: 13.3 °
Period: 1,451.3 minutes
Semi major axis: 42462 km
RCS: 3.0486 m2 (large)
Launch date: June 9, 1982
Source: United States (US)
Launch site: AIR FORCE EASTERN TEST RANGE (AFETR)
Your satellite tracking list
Your tracking list is empty




NASA's NSSDC Master Catalog

Two Line Element Set (TLE):
1 13269U 82058A   26024.10903692 -.00000182  00000-0  00000-0 0  9990
2 13269  13.2623 338.2212 0019996 278.1059  80.8702  0.99219031118107
Source of the keplerian elements: AFSPC